Regional Weather Roundup
Issued by NWS

Home | Current Version | Previous Version | Text Only | Print | Product List | Glossary On
Versions: 1 2 3 4 5 6 7 8 9 10 11 12 13 14 15 16 17 18 19 20 21 22 23 24 25 26 27 28 29 30 31 32 33 34 35 36 37 38 39 40 41 42 43 44 45 46 47 48 49 50
000
ASUS43 KOAX 230610
RWRNE

WEATHER ROUNDUP FOR NEBRASKA
NATIONAL WEATHER SERVICE OMAHA NE
100 AM CDT TUE MAY 23 2017

NOTES: SATELLITE DATA IS BEING USED TO AUGMENT CLOUD COVER ABOVE
       12000 FEET.
       "FAIR" INDICATES FEW OR NO CLOUDS BELOW 12,000 FEET WITH NO
       SIGNIFICANT WEATHER AND/OR OBSTRUCTIONS TO VISIBILITY.

  * THESE STATIONS DO NOT REPORT WEATHER SUCH AS RAIN...SNOW OR FOG.

NEZ001>004-019>022-054>056-230700-
NEBRASKA PANHANDLE

CITY           SKY/WX    TMP DP  RH WIND       PRES   REMARKS
SCOTTSBLUFF    CLOUDY    41  37  86 NW6       30.20R
6HR MIN TEMP:  38; 6HR MAX TEMP:  56; 6HR PCP: TRACE;

ALLIANCE       CLOUDY    36  34  92 W9        30.15S WCI  29
6HR MIN TEMP:  33; 6HR MAX TEMP:  48; 6HR PCP:  0.07;

CHADRON        CLOUDY    44  41  89 SW5       30.16S
6HR MIN TEMP:  41; 6HR MAX TEMP:  52;

GORDON         CLOUDY    44  39  83 NW8       30.13R
6HR MIN TEMP:  42; 6HR MAX TEMP:  50;

KIMBALL        CLEAR     39  37  91 NW9       30.21S WCI  33
SIDNEY         CLEAR     38  36  92 W9        30.19S WCI  31
6HR MIN TEMP:  37; 6HR MAX TEMP:  51; 6HR PCP: TRACE;

$$

NEZ057>060-069>072-079>082-230700-
SOUTHWEST NEBRASKA

CITY           SKY/WX    TMP DP  RH WIND       PRES   REMARKS
NORTH PLATTE   CLEAR     41  40  96 NW7       30.10R
6HR MIN TEMP:  41; 6HR MAX TEMP:  59; 6HR PCP:  0.12;

IMPERIAL       CLOUDY    45  40  82 NW14      30.14R
6HR MIN TEMP:  45; 6HR MAX TEMP:  55;

LEXINGTON      PTCLDY    48  46  93 W6        30.06S
MCCOOK         PTCLDY    47  44  90 NW8       30.10R
6HR MIN TEMP:  47; 6HR MAX TEMP:  66; 6HR PCP: TRACE;

OGALLALA       CLEAR     43  40  89 NW7       30.14R
$$

NEZ005>010-023>029-035>040-094-230700-
NORTH CENTRAL NEBRASKA

CITY           SKY/WX    TMP DP  RH WIND       PRES   REMARKS
VALENTINE      CLOUDY    47  41  80 W10       30.07S
6HR MIN TEMP:  46; 6HR MAX TEMP:  58;

AINSWORTH      MOCLDY    45  42  91 NW6       30.06R
BROKEN BOW     PTCLDY    49  43  80 NW8       30.04S
6HR MIN TEMP:  48; 6HR MAX TEMP:  62; 6HR PCP: TRACE;

O`NEILL        PTCLDY    49  42  79 NW10      30.00S
ORD            CLOUDY    46  41  82 W6        30.02S
6HR MIN TEMP:  46; 6HR MAX TEMP:  60;

THEDFORD       CLEAR     42  41  93 NW6       30.09R
$$

NEZ041-046>049-061>064-073>077-083>087-230700-
SOUTH CENTRAL NEBRASKA

CITY           SKY/WX    TMP DP  RH WIND       PRES   REMARKS
GRAND ISLAND   CLOUDY    53  45  74 N9        30.03R
6HR MIN TEMP:  53; 6HR MAX TEMP:  68; 6HR PCP: TRACE;

AURORA         CLOUDY    54  46  76 N12       30.01R
HASTINGS       CLOUDY    53  48  83 N9        30.03S
6HR MIN TEMP:  53; 6HR MAX TEMP:  67; 6HR PCP:  0.08;

HEBRON         RAIN      55  51  88 N13G20    30.00R
HOLDREGE       CLOUDY    50  45  83 NW7       30.04S
KEARNEY *      CLOUDY    52  43  71 N10       30.04S
YORK           CLOUDY    54  46  76 N10       30.00R
$$

NEZ011>018-030>034-042>045-230700-
NORTHEAST NEBRASKA

CITY           SKY/WX    TMP DP  RH WIND       PRES   REMARKS
NORFOLK        CLOUDY    47  42  83 W7        29.96F
6HR MIN TEMP:  47; 6HR MAX TEMP:  64;

ALBION         CLOUDY    47  43  84 NW3       30.00S
BLAIR          CLOUDY    54  46  76 NW10G18   29.93R
FREMONT        CLOUDY    53  46  78 NW8       29.94F
WAYNE          CLEAR     47  46  99 W6        29.95F
$$

NEZ050>053-065>068-078-088>093-230700-
SOUTHEAST NEBRASKA

CITY           SKY/WX    TMP DP  RH WIND       PRES   REMARKS
LINCOLN        CLOUDY    56  49  77 N15       29.95S
6HR MIN TEMP:  54; 6HR MAX TEMP:  61;

OMAHA EPPLEY   CLOUDY    56  47  71 N12       29.92R
6HR MIN TEMP:  56; 6HR MAX TEMP:  64;

BEATRICE       CLOUDY    54  53  95 N8        29.93R
FALLS CITY     CLOUDY    54  53  97 W6        29.87F
6HR MIN TEMP:  54; 6HR MAX TEMP:  64;

NEBRASKA CITY  PTCLDY    56  48  76 N14       29.89F
PLATTSMOUTH    PTCLDY    54  48  79 NW8       29.91S
$$

NEZ044-045-051>053-067-230700-
OMAHA AREA

CITY           SKY/WX    TMP DP  RH WIND       PRES   REMARKS
OMAHA EPPLEY   CLOUDY    56  47  71 N12       29.92R
6HR MIN TEMP:  56; 6HR MAX TEMP:  64;

BLAIR          CLOUDY    54  46  76 NW10G18   29.93R
FREMONT        CLOUDY    53  46  78 NW8       29.94F
MILLARD        CLOUDY    58  49  73 NW9G17    29.93S
OFFUTT AFB     PTCLDY    56  48  74 NW12      29.90S
PLATTSMOUTH    PTCLDY    54  48  79 NW8       29.91S
WAHOO          FAIR      53  47  80 N13       29.94S
$$




USA.gov is the U.S. government's official web portal to all federal, state and local government web resources and services.